Location: Boncourt
(49.6160°N, 3.9448°E)
Time: 15:43:11
(UTC+00:00)

Cosmos 1869 - Pass Details

Date: 09 February 2023
Orbit: 510 x 550 km, 82.5° (Epoch: 26 March)

Event Time Altitude Azimuth Distance (km) Brightness Sun altitude
Rises 17:59:57 0° 346° (NNW) 2,680 6.9 -11.3°
Reaches altitude 10° 18:02:07 10° 343° (NNW) 1,793 6.0 -11.6°
Maximum altitude 18:05:59 58° 265° (W) 632 4.0 -12.3°
Drops below altitude 10° 18:09:53 10° 185° (S) 1,803 6.1 -12.9°
Sets 18:12:03 0° 182° (S) 2,697 7.0 -13.2°
